Hourly Data Report for October 09, 2015

All times are specified in Local Standard Time (LST). Add 1 hour to adjust for Daylight Saving Time where and when it is observed.

SAINT JOHN A
NEW BRUNSWICK

45°18'58.000" N
65°53'24.000" W
108.80 m
8104901
71609
YSJ

Download Data

Hourly Data (October 2015)
Hourly Data Report for October 9, 2015
Temp Definition
°C
Dew Point Temp Definition
°C
Rel Hum Definition
%
Wind Dir Definition
10's deg

Wind Spd Definition
km/h
Visibility Definition
km
Stn Press Definition
kPa
Hmdx Definition


Wind Chill Definition


Weather Definition


TIME
00:00 Legend Double Dagger 2.6 1.6 93 0 1 24.1 100.72     LegendNANA
01:00 Legend Double Dagger 2.0 1.3 95 36 2 24.1 100.71     LegendNANA
02:00 Legend Double Dagger 0.8 0.1 95 36 2 24.1 100.71     Mostly Cloudy
03:00 Legend Double Dagger -1.0 -1.4 97 36 1 24.1 100.67   -1 LegendNANA
04:00 Legend Double Dagger -0.7 -1.3 96 7 3 24.1 100.60   -2 LegendNANA
05:00 Legend Double Dagger -0.8 -1.4 96 36 2 24.1 100.60   -1 Mostly Cloudy
06:00 Legend Double Dagger -0.4 -0.8 97 36 3 24.1 100.61   -1 LegendNANA
07:00 Legend Double Dagger -0.7 -1.3 96 35 3 24.1 100.61   -2 LegendNANA
08:00 Legend Double Dagger 3.3 2.7 96 36 2 24.1 100.67     Mostly Cloudy
09:00 Legend Double Dagger 4.6 3.0 89 9 5 24.1 100.64     LegendNANA
10:00 Legend Double Dagger 6.6 3.8 82 8 4 24.1 100.58     LegendNANA
11:00 Legend Double Dagger 9.7 3.3 64 20 6 24.1 100.43     Cloudy
12:00 Legend Double Dagger 10.4 3.7 63 15 8 24.1 100.34     LegendNANA
13:00 Legend Double Dagger 9.3 4.5 72 14 10 24.1 100.22     LegendNANA
14:00 Legend Double Dagger 9.4 5.4 76 12 12 24.1 100.08     Cloudy
15:00 Legend Double Dagger 10.8 7.0 77 13 12 24.1 99.98     LegendNANA
16:00 Legend Double Dagger 10.1 7.5 84 14 13 24.1 99.91     LegendNANA
17:00 Legend Double Dagger 9.6 8.7 94 14 11 16.1 99.77     Rain
18:00 Legend Double Dagger 9.3 8.7 96 14 17 16.1 99.60     Rain
19:00 Legend Double Dagger 9.1 8.5 96 16 18 6.4 99.56     Rain,Fog
20:00 Legend Double Dagger 9.3 8.6 95 17 30 6.4 99.43     Rain,Fog
21:00 Legend Double Dagger 9.2 8.6 96 17 24 4.8 99.29     Rain,Fog
22:00 Legend Double Dagger 9.6 9.2 97 17 22 4.8 99.15     Rain,Fog
23:00 Legend Double Dagger 10.5 10.2 98 19 18 3.2 98.99     Moderate Rain,Fog

Notes on Data Quality.

Legend

  • E = Estimated
  • M = Missing
  • NA = Not Available
  • ‡ = Partner data that is not subject to review by the National Climate Archives
Date modified: